sat.trackr.live / text

‹ back to catalog

JILIN-1 KUANFU 02A

NORAD 57696 · 2023-127A

PAYLOAD ACTIVE UNKNOWN

§ Identity

Operator
Country
PRC
Launch date
2023-08-25
Launch site
JSC
Launch vehicle
Mass (kg)
RCS (m²)

External: N2YO · Heavens-Above · Gunter

§ Orbital elements

Epoch: 2026-05-25T05:08:56.222304Z

Period
95.34 min
Inclination
97.5547°
Eccentricity
0.0012680
Mean motion
15.10386838 rev/d
Perigee alt
526.3 km
Apogee alt
543.8 km
Semi-major
6,913.2 km
B*
2.8760e-4
RAAN
239.3324°
Arg perigee
62.1517°
Mean anomaly
298.0995°
Rev number
15,216

§ Raw data

JILIN-1 KUANFU 02A1 57696U 23127A   26145.21453961  .00004667  00000+0  28760-3 0  99952 57696  97.5547 239.3324 0012680  62.1517 298.0995 15.10386838152167

JSON: /api/v1/satellites/57696 · /tle

For live sub-satellite position, see the globe view (requires WebGL).

§ Visibility from observer

Set your observer location to see the next 7 days of passes ≥ 10°. The values pass through the URL so the page stays shareable.

No JS? Fill the form by hand. The geolocation button needs JavaScript.